[Date Prev][Date Next][Thread Prev][Thread Next] - [Date Index][Thread Index][Author Index]

2 LIne ISS Keps 12-9



ISS
1 25544U 98067A   02343.18133089  .00035856  00000-0  48892-3 0  4531
2 25544  51.6369 254.4237 0003388 244.2856 275.5659 15.57150364231262


----
Via the sarex mailing list at AMSAT.ORG courtesy of AMSAT-NA.
To unsubscribe, send "unsubscribe sarex" to Majordomo@amsat.org



AMSAT Top AMSAT Home